Time,TemperatureF,DewpointF,PressureIn,WindDirection,WindDirectionDegrees,WindSpeedMPH,WindSpeedGustMPH,Humidity,HourlyPrecipIn,Conditions,Clouds,dailyrainin,SoftwareType,DateUTC
2013-04-22 00:01:00,33.2,28.3,30.67,ESE,109,0.0,0.0,82,0.00,CLR,,0.00,WeatherDisplay:10.37,2013-04-22 04:01:00,
2013-04-22 00:06:00,33.1,28.2,30.67,ESE,109,0.7,2.3,82,0.00,CLR,,0.00,WeatherDisplay:10.37,2013-04-22 04:06:00,
2013-04-22 00:11:00,33.0,28.1,30.68,ESE,109,0.0,0.0,82,0.00,CLR,,0.00,WeatherDisplay:10.37,2013-04-22 04:11:00,
2013-04-22 00:16:00,32.9,28.0,30.67,ESE,109,0.0,0.0,82,0.00,CLR,,0.00,WeatherDisplay:10.37,2013-04-22 04:16:00,
2013-04-22 00:21:00,32.8,28.2,30.68,ESE,109,0.0,0.0,83,0.00,CLR,,0.00,WeatherDisplay:10.37,2013-04-22 04:21:00,
2013-04-22 00:26:00,32.7,28.1,30.68,ESE,109,0.0,0.0,83,0.00,CLR,,0.00,WeatherDisplay:10.37,2013-04-22 04:26:00,
2013-04-22 00:31:00,32.8,28.2,30.68,ESE,109,0.0,0.0,83,0.00,CLR,,0.00,WeatherDisplay:10.37,2013-04-22 04:31:00,
2013-04-22 00:36:00,33.0,28.4,30.68,ESE,109,0.0,0.0,83,0.00,CLR,,0.00,WeatherDisplay:10.37,2013-04-22 04:36:00,
2013-04-22 00:41:00,33.3,28.7,30.68,ESE,109,0.0,0.0,83,0.00,CLR,,0.00,WeatherDisplay:10.37,2013-04-22 04:41:00,
2013-04-22 00:46:00,33.4,28.8,30.68,ESE,109,0.0,0.0,83,0.00,CLR,,0.00,WeatherDisplay:10.37,2013-04-22 04:46:00,
2013-04-22 00:51:00,33.3,28.7,30.68,ESE,109,0.0,0.0,83,0.00,CLR,,0.00,WeatherDisplay:10.37,2013-04-22 04:51:00,
2013-04-22 00:56:00,33.3,28.7,30.68,ESE,109,0.0,0.0,83,0.00,CLR,,0.00,WeatherDisplay:10.37,2013-04-22 04:56:00,
2013-04-22 01:01:00,33.0,28.4,30.68,ESE,109,0.0,0.0,83,0.00,CLR,,0.00,WeatherDisplay:10.37,2013-04-22 05:01:00,
2013-04-22 01:06:00,32.9,28.3,30.68,ESE,109,0.0,1.2,83,0.00,CLR,,0.00,WeatherDisplay:10.37,2013-04-22 05:06:00,
2013-04-22 01:11:00,32.9,28.3,30.68,ESE,109,0.0,0.0,83,0.00,CLR,,0.00,WeatherDisplay:10.37,2013-04-22 05:11:00,
2013-04-22 01:16:00,32.9,28.6,30.68,ESE,109,0.0,0.0,84,0.00,CLR,,0.00,WeatherDisplay:10.37,2013-04-22 05:16:00,
2013-04-22 01:21:00,32.9,28.6,30.68,ESE,109,0.0,1.2,84,0.00,CLR,,0.00,WeatherDisplay:10.37,2013-04-22 05:21:00,
2013-04-22 01:26:00,32.9,28.9,30.68,ESE,109,0.0,0.0,85,0.00,CLR,,0.00,WeatherDisplay:10.37,2013-04-22 05:26:00,
2013-04-22 01:31:00,32.9,28.9,30.68,ESE,109,0.0,0.0,85,0.00,CLR,,0.00,WeatherDisplay:10.37,2013-04-22 05:31:00,
2013-04-22 01:36:00,32.9,28.9,30.67,ESE,109,0.1,1.2,85,0.00,CLR,,0.00,WeatherDisplay:10.37,2013-04-22 05:36:00,
2013-04-22 01:41:00,32.8,28.8,30.67,ESE,109,0.0,0.0,85,0.00,CLR,,0.00,WeatherDisplay:10.37,2013-04-22 05:41:00,
2013-04-22 01:46:00,32.8,29.1,30.67,ESE,109,0.2,1.2,86,0.00,CLR,,0.00,WeatherDisplay:10.37,2013-04-22 05:46:00,
2013-04-22 01:51:00,32.9,29.2,30.67,ESE,109,0.0,0.0,86,0.00,CLR,,0.00,WeatherDisplay:10.37,2013-04-22 05:51:00,
2013-04-22 01:56:00,32.9,29.2,30.67,ESE,109,0.0,0.0,86,0.00,CLR,,0.00,WeatherDisplay:10.37,2013-04-22 05:56:00,
2013-04-22 02:01:00,32.8,28.8,30.67,ESE,109,0.0,0.0,85,0.00,CLR,,0.00,WeatherDisplay:10.37,2013-04-22 06:01:00,
2013-04-22 02:06:00,32.6,28.6,30.67,ESE,109,0.0,0.0,85,0.00,CLR,,0.00,WeatherDisplay:10.37,2013-04-22 06:06:00,
2013-04-22 02:11:00,32.3,28.3,30.67,ESE,109,0.0,0.0,85,0.00,CLR,,0.00,WeatherDisplay:10.37,2013-04-22 06:11:00,
2013-04-22 02:16:00,32.2,28.2,30.67,ESE,109,0.0,0.0,85,0.00,CLR,,0.00,WeatherDisplay:10.37,2013-04-22 06:16:00,
2013-04-22 02:21:00,32.0,28.0,30.67,ESE,109,0.0,0.0,85,0.00,CLR,,0.00,WeatherDisplay:10.37,2013-04-22 06:21:00,
2013-04-22 02:26:00,31.9,28.2,30.68,ESE,109,0.0,0.0,86,0.00,CLR,,0.00,WeatherDisplay:10.37,2013-04-22 06:26:00,
2013-04-22 02:31:00,31.9,28.2,30.68,ESE,109,0.0,0.0,86,0.00,CLR,,0.00,WeatherDisplay:10.37,2013-04-22 06:31:00,
2013-04-22 02:36:00,32.0,28.8,30.68,ESE,109,0.0,0.0,88,0.00,CLR,,0.00,WeatherDisplay:10.37,2013-04-22 06:36:00,
2013-04-22 02:41:00,32.1,28.9,30.68,ESE,109,0.0,0.0,88,0.00,CLR,,0.00,WeatherDisplay:10.37,2013-04-22 06:41:00,
2013-04-22 02:46:00,32.2,29.0,30.67,ESE,109,0.0,0.0,88,0.00,CLR,,0.00,WeatherDisplay:10.37,2013-04-22 06:46:00,
2013-04-22 02:51:00,32.1,28.9,30.68,ESE,109,0.0,0.0,88,0.00,CLR,,0.00,WeatherDisplay:10.37,2013-04-22 06:51:00,
2013-04-22 02:56:00,32.1,29.2,30.68,ESE,109,0.0,0.0,89,0.00,CLR,,0.00,WeatherDisplay:10.37,2013-04-22 06:56:00,
2013-04-22 03:01:00,32.1,29.2,30.68,ESE,109,0.0,0.0,89,0.00,CLR,,0.00,WeatherDisplay:10.37,2013-04-22 07:01:00,
2013-04-22 03:06:00,32.1,29.2,30.67,ESE,109,0.0,0.0,89,0.00,CLR,,0.00,WeatherDisplay:10.37,2013-04-22 07:06:00,
2013-04-22 03:11:00,32.0,29.1,30.67,ESE,109,0.0,0.0,89,0.00,CLR,,0.00,WeatherDisplay:10.37,2013-04-22 07:11:00,
2013-04-22 03:16:00,31.9,29.0,30.67,ESE,109,0.0,0.0,89,0.00,CLR,,0.00,WeatherDisplay:10.37,2013-04-22 07:16:00,
2013-04-22 03:21:00,31.8,28.9,30.68,ESE,109,0.0,0.0,89,0.00,CLR,,0.00,WeatherDisplay:10.37,2013-04-22 07:21:00,
2013-04-22 03:26:00,31.6,28.7,30.68,ESE,109,0.0,0.0,89,0.00,CLR,,0.00,WeatherDisplay:10.37,2013-04-22 07:26:00,
2013-04-22 03:31:00,31.5,28.6,30.68,ESE,109,0.0,0.0,89,0.00,CLR,,0.00,WeatherDisplay:10.37,2013-04-22 07:31:00,
2013-04-22 03:36:00,31.4,28.5,30.68,ESE,109,0.0,0.0,89,0.00,CLR,,0.00,WeatherDisplay:10.37,2013-04-22 07:36:00,
2013-04-22 03:41:00,31.2,28.6,30.68,ESE,109,0.0,0.0,90,0.00,CLR,,0.00,WeatherDisplay:10.37,2013-04-22 07:41:00,
2013-04-22 03:46:00,31.1,28.2,30.68,ESE,109,0.0,0.0,89,0.00,CLR,,0.00,WeatherDisplay:10.37,2013-04-22 07:46:00,
2013-04-22 03:51:00,30.9,28.0,30.68,ESE,109,0.0,0.0,89,0.00,CLR,,0.00,WeatherDisplay:10.37,2013-04-22 07:51:00,
2013-04-22 03:56:00,30.7,28.1,30.69,ESE,109,0.0,0.0,90,0.00,CLR,,0.00,WeatherDisplay:10.37,2013-04-22 07:56:00,
2013-04-22 04:01:00,30.6,28.0,30.69,ESE,109,0.0,0.0,90,0.00,CLR,,0.00,WeatherDisplay:10.37,2013-04-22 08:01:00,
2013-04-22 04:06:00,30.5,27.9,30.69,ESE,109,0.0,0.0,90,0.00,CLR,,0.00,WeatherDisplay:10.37,2013-04-22 08:06:00,
2013-04-22 04:11:00,30.5,27.9,30.69,ESE,109,0.0,0.0,90,0.00,CLR,,0.00,WeatherDisplay:10.37,2013-04-22 08:11:00,
2013-04-22 04:16:00,30.5,27.9,30.69,ESE,109,0.0,0.0,90,0.00,CLR,,0.00,WeatherDisplay:10.37,2013-04-22 08:16:00,
2013-04-22 04:21:00,30.5,28.2,30.69,ESE,109,0.0,0.0,91,0.00,CLR,,0.00,WeatherDisplay:10.37,2013-04-22 08:21:00,
2013-04-22 04:26:00,30.6,28.3,30.69,ESE,109,0.0,0.0,91,0.00,CLR,,0.00,WeatherDisplay:10.37,2013-04-22 08:26:00,
2013-04-22 04:31:00,30.7,28.4,30.69,ESE,109,0.0,0.0,91,0.00,CLR,,0.00,WeatherDisplay:10.37,2013-04-22 08:31:00,
2013-04-22 04:36:00,30.5,27.9,30.70,ESE,109,0.0,0.0,90,0.00,CLR,,0.00,WeatherDisplay:10.37,2013-04-22 08:36:00,
2013-04-22 04:41:00,30.3,27.7,30.70,ESE,109,0.0,0.0,90,0.00,CLR,,0.00,WeatherDisplay:10.37,2013-04-22 08:41:00,
2013-04-22 04:46:00,30.1,27.8,30.69,ESE,109,0.0,0.0,91,0.00,CLR,,0.00,WeatherDisplay:10.37,2013-04-22 08:46:00,
2013-04-22 04:51:00,30.0,27.4,30.70,ESE,109,0.0,0.0,90,0.00,CLR,,0.00,WeatherDisplay:10.37,2013-04-22 08:51:00,
2013-04-22 04:56:00,29.9,27.6,30.70,ESE,109,0.0,0.0,91,0.00,CLR,,0.00,WeatherDisplay:10.37,2013-04-22 08:56:00,
2013-04-22 05:01:00,29.8,27.5,30.70,ESE,109,0.0,0.0,91,0.00,CLR,,0.00,WeatherDisplay:10.37,2013-04-22 09:01:00,
2013-04-22 05:06:00,29.7,27.4,30.70,ESE,109,0.0,0.0,91,0.00,CLR,,0.00,WeatherDisplay:10.37,2013-04-22 09:06:00,
2013-04-22 05:11:00,29.5,27.2,30.70,ESE,109,0.0,0.0,91,0.00,CLR,,0.00,WeatherDisplay:10.37,2013-04-22 09:11:00,
2013-04-22 05:16:00,29.4,27.1,30.71,ESE,109,0.0,0.0,91,0.00,CLR,,0.00,WeatherDisplay:10.37,2013-04-22 09:16:00,
2013-04-22 05:21:00,29.3,27.0,30.71,ESE,109,0.0,0.0,91,0.00,CLR,,0.00,WeatherDisplay:10.37,2013-04-22 09:21:00,
2013-04-22 05:26:00,29.3,27.3,30.71,ESE,109,0.0,0.0,92,0.00,CLR,,0.00,WeatherDisplay:10.37,2013-04-22 09:26:00,
2013-04-22 05:31:00,29.3,27.3,30.71,ESE,109,0.0,0.0,92,0.00,CLR,,0.00,WeatherDisplay:10.37,2013-04-22 09:31:00,
2013-04-22 05:36:00,29.3,27.3,30.71,ESE,109,0.0,0.0,92,0.00,CLR,,0.00,WeatherDisplay:10.37,2013-04-22 09:36:00,
2013-04-22 05:41:00,29.3,27.3,30.71,ESE,109,0.0,0.0,92,0.00,CLR,,0.00,WeatherDisplay:10.37,2013-04-22 09:41:00,
2013-04-22 05:46:00,29.4,27.4,30.71,ESE,109,0.1,1.2,92,0.00,CLR,,0.00,WeatherDisplay:10.37,2013-04-22 09:46:00,
2013-04-22 05:51:00,29.5,27.7,30.71,ESE,109,0.0,0.0,93,0.00,CLR,,0.00,WeatherDisplay:10.37,2013-04-22 09:51:00,
2013-04-22 05:56:00,29.7,27.9,30.71,ESE,109,0.0,0.0,93,0.00,CLR,,0.00,WeatherDisplay:10.37,2013-04-22 09:56:00,
2013-04-22 06:01:00,29.9,28.1,30.71,ESE,109,0.0,0.0,93,0.00,CLR,,0.00,WeatherDisplay:10.37,2013-04-22 10:01:00,
2013-04-22 06:06:00,30.1,28.3,30.71,ESE,109,0.0,0.0,93,0.00,CLR,,0.00,WeatherDisplay:10.37,2013-04-22 10:06:00,
2013-04-22 06:11:00,30.4,28.6,30.71,ESE,109,0.0,0.0,93,0.00,CLR,,0.00,WeatherDisplay:10.37,2013-04-22 10:11:00,
2013-04-22 06:16:00,30.6,28.8,30.72,ESE,109,0.0,0.0,93,0.00,CLR,,0.00,WeatherDisplay:10.37,2013-04-22 10:16:00,
2013-04-22 06:21:00,30.8,29.0,30.72,ESE,109,0.0,0.0,93,0.00,CLR,,0.00,WeatherDisplay:10.37,2013-04-22 10:21:00,
2013-04-22 06:26:00,30.9,29.1,30.72,ESE,109,0.0,0.0,93,0.00,CLR,,0.00,WeatherDisplay:10.37,2013-04-22 10:26:00,
2013-04-22 06:31:00,31.0,29.2,30.72,ESE,109,0.0,0.0,93,0.00,CLR,,0.00,WeatherDisplay:10.37,2013-04-22 10:31:00,
2013-04-22 06:36:00,31.2,29.4,30.72,ESE,109,0.0,0.0,93,0.00,CLR,,0.00,WeatherDisplay:10.37,2013-04-22 10:36:00,
2013-04-22 06:41:00,31.4,29.6,30.72,ESE,109,0.0,0.0,93,0.00,CLR,,0.00,WeatherDisplay:10.37,2013-04-22 10:41:00,
2013-04-22 06:46:00,31.5,29.7,30.72,ESE,109,0.0,0.0,93,0.00,CLR,,0.00,WeatherDisplay:10.37,2013-04-22 10:46:00,
2013-04-22 06:51:00,31.8,29.7,30.72,ESE,109,0.0,0.0,92,0.00,CLR,,0.00,WeatherDisplay:10.37,2013-04-22 10:51:00,
2013-04-22 06:56:00,32.1,29.8,30.72,ESE,109,0.0,0.0,91,0.00,CLR,,0.00,WeatherDisplay:10.37,2013-04-22 10:56:00,
2013-04-22 07:01:00,32.4,29.8,30.72,ESE,109,0.1,1.0,90,0.00,CLR,,0.00,WeatherDisplay:10.37,2013-04-22 11:01:00,
2013-04-22 07:06:00,32.7,29.8,30.72,ESE,109,0.4,2.3,89,0.00,CLR,,0.00,WeatherDisplay:10.37,2013-04-22 11:06:00,
2013-04-22 07:11:00,33.1,29.9,30.72,ESE,109,0.0,0.0,88,0.00,CLR,,0.00,WeatherDisplay:10.37,2013-04-22 11:11:00,
2013-04-22 07:16:00,33.5,30.0,30.73,ESE,109,0.0,0.0,87,0.00,CLR,,0.00,WeatherDisplay:10.37,2013-04-22 11:16:00,
2013-04-22 07:21:00,33.9,30.2,30.72,ESE,109,0.4,2.3,86,0.00,CLR,,0.00,WeatherDisplay:10.37,2013-04-22 11:21:00,
2013-04-22 07:26:00,34.3,30.3,30.72,ESE,109,0.2,1.2,85,0.00,CLR,,0.00,WeatherDisplay:10.37,2013-04-22 11:26:00,
2013-04-22 07:31:00,34.7,30.4,30.72,NE,38,0.2,2.0,84,0.00,CLR,,0.00,WeatherDisplay:10.37,2013-04-22 11:31:00,
2013-04-22 07:36:00,35.0,30.4,30.72,NE,38,0.0,0.0,83,0.00,CLR,,0.00,WeatherDisplay:10.37,2013-04-22 11:36:00,
2013-04-22 07:41:00,35.5,30.8,30.72,West,278,0.4,1.2,83,0.00,CLR,,0.00,WeatherDisplay:10.37,2013-04-22 11:41:00,
2013-04-22 07:46:00,36.1,31.1,30.72,WNW,291,0.5,2.3,82,0.00,CLR,,0.00,WeatherDisplay:10.37,2013-04-22 11:46:00,
2013-04-22 07:51:00,36.7,31.7,30.72,WNW,291,0.1,1.2,82,0.00,CLR,,0.00,WeatherDisplay:10.37,2013-04-22 11:51:00,
2013-04-22 07:56:00,37.3,31.7,30.72,East,92,0.9,2.3,80,0.00,CLR,,0.00,WeatherDisplay:10.37,2013-04-22 11:56:00,
2013-04-22 08:01:00,37.8,32.2,30.73,ENE,64,0.0,0.0,80,0.00,CLR,,0.00,WeatherDisplay:10.37,2013-04-22 12:01:00,
2013-04-22 08:06:00,38.4,32.5,30.73,NNW,332,0.7,2.3,79,0.00,CLR,,0.00,WeatherDisplay:10.37,2013-04-22 12:06:00,
2013-04-22 08:11:00,39.2,32.9,30.73,SE,127,0.6,2.3,78,0.00,CLR,,0.00,WeatherDisplay:10.37,2013-04-22 12:11:00,
2013-04-22 08:16:00,40.0,33.0,30.72,NNE,31,1.3,2.3,76,0.00,CLR,,0.00,WeatherDisplay:10.37,2013-04-22 12:16:00,
2013-04-22 08:21:00,40.8,33.2,30.73,ESE,123,0.2,1.2,74,0.00,CLR,,0.00,WeatherDisplay:10.37,2013-04-22 12:21:00,
2013-04-22 08:26:00,41.7,33.7,30.73,North,355,1.8,3.5,73,0.00,CLR,,0.00,WeatherDisplay:10.37,2013-04-22 12:26:00,
2013-04-22 08:31:00,42.3,33.6,30.73,ENE,71,3.1,4.6,71,0.00,CLR,,0.00,WeatherDisplay:10.37,2013-04-22 12:31:00,
2013-04-22 08:36:00,42.6,33.5,30.73,NNW,337,1.2,2.3,70,0.00,CLR,,0.00,WeatherDisplay:10.37,2013-04-22 12:36:00,
2013-04-22 08:41:00,43.0,34.2,30.73,SW,234,1.2,4.6,71,0.00,CLR,,0.00,WeatherDisplay:10.37,2013-04-22 12:41:00,
2013-04-22 08:46:00,43.6,33.7,30.72,East,97,2.3,3.5,68,0.00,CLR,,0.00,WeatherDisplay:10.37,2013-04-22 12:46:00,
2013-04-22 08:51:00,44.0,33.7,30.72,NNW,346,0.7,3.5,67,0.00,CLR,,0.00,WeatherDisplay:10.37,2013-04-22 12:51:00,
2013-04-22 08:56:00,44.4,33.7,30.72,ENE,63,0.5,1.2,66,0.00,CLR,,0.00,WeatherDisplay:10.37,2013-04-22 12:56:00,
2013-04-22 09:01:00,45.2,33.7,30.72,ENE,75,2.2,3.5,64,0.00,CLR,,0.00,WeatherDisplay:10.37,2013-04-22 13:01:00,
2013-04-22 09:06:00,45.6,33.7,30.72,SSE,152,1.6,3.5,63,0.00,CLR,,0.00,WeatherDisplay:10.37,2013-04-22 13:06:00,
2013-04-22 09:11:00,46.2,33.1,30.72,South,182,2.3,4.6,60,0.00,CLR,,0.00,WeatherDisplay:10.37,2013-04-22 13:11:00,
2013-04-22 09:16:00,46.8,31.9,30.72,SSE,159,2.9,8.1,56,0.00,CLR,,0.00,WeatherDisplay:10.37,2013-04-22 13:16:00,
2013-04-22 09:21:00,46.9,32.0,30.72,NNE,20,2.1,4.6,56,0.00,CLR,,0.00,WeatherDisplay:10.37,2013-04-22 13:21:00,
2013-04-22 09:26:00,47.1,31.7,30.72,SE,131,3.3,6.9,55,0.00,CLR,,0.00,WeatherDisplay:10.37,2013-04-22 13:26:00,
2013-04-22 09:31:00,47.3,31.9,30.72,SSE,155,4.4,8.1,55,0.00,CLR,,0.00,WeatherDisplay:10.37,2013-04-22 13:31:00,
2013-04-22 09:36:00,47.5,32.1,30.72,East,87,4.5,6.9,55,0.00,CLR,,0.00,WeatherDisplay:10.37,2013-04-22 13:36:00,
2013-04-22 09:41:00,47.7,30.9,30.72,ESE,102,2.4,5.8,52,0.00,CLR,,0.00,WeatherDisplay:10.37,2013-04-22 13:41:00,
2013-04-22 09:46:00,47.7,30.0,30.72,SSE,159,3.5,6.9,50,0.00,CLR,,0.00,WeatherDisplay:10.37,2013-04-22 13:46:00,
2013-04-22 09:51:00,48.1,29.8,30.73,East,88,4.5,8.1,49,0.00,CLR,,0.00,WeatherDisplay:10.37,2013-04-22 13:51:00,
2013-04-22 09:56:00,48.3,26.2,30.73,ENE,76,6.2,13.0,42,0.00,CLR,,0.00,WeatherDisplay:10.37,2013-04-22 13:56:00,
2013-04-22 10:01:00,48.2,25.6,30.73,ESE,122,8.3,13.8,41,0.00,SCT,,0.00,WeatherDisplay:10.37,2013-04-22 14:01:00,
2013-04-22 10:06:00,48.2,25.6,30.74,SSE,154,3.3,6.9,41,0.00,SCT,,0.00,WeatherDisplay:10.37,2013-04-22 14:06:00,
2013-04-22 10:11:00,48.0,24.8,30.75,ESE,106,4.5,10.4,40,0.00,SCT,,0.00,WeatherDisplay:10.37,2013-04-22 14:11:00,
2013-04-22 10:16:00,48.1,25.5,30.75,ESE,119,3.4,6.9,41,0.00,SCT,,0.00,WeatherDisplay:10.37,2013-04-22 14:16:00,
2013-04-22 10:21:00,48.3,25.1,30.76,ENE,76,3.1,4.6,40,0.00,SCT,,0.00,WeatherDisplay:10.37,2013-04-22 14:21:00,
2013-04-22 10:26:00,48.7,25.4,30.76,ESE,115,6.3,10.4,40,0.00,SCT,,0.00,WeatherDisplay:10.37,2013-04-22 14:26:00,
2013-04-22 10:31:00,49.0,26.3,30.76,SE,125,4.5,11.5,41,0.00,SCT,,0.00,WeatherDisplay:10.37,2013-04-22 14:31:00,
2013-04-22 10:36:00,49.1,25.8,30.75,ENE,67,3.6,6.9,40,0.00,SCT,,0.00,WeatherDisplay:10.37,2013-04-22 14:36:00,
2013-04-22 10:41:00,49.1,26.4,30.75,ESE,115,2.0,4.6,41,0.00,SCT,,0.00,WeatherDisplay:10.37,2013-04-22 14:41:00,
2013-04-22 10:46:00,49.2,25.3,30.75,South,189,7.2,12.7,39,0.00,SCT,,0.00,WeatherDisplay:10.37,2013-04-22 14:46:00,
2013-04-22 10:51:00,49.0,25.1,30.75,SE,140,4.6,11.5,39,0.00,SCT,,0.00,WeatherDisplay:10.37,2013-04-22 14:51:00,
2013-04-22 10:56:00,49.3,25.4,30.75,SSE,148,8.6,12.7,39,0.00,SCT,,0.00,WeatherDisplay:10.37,2013-04-22 14:56:00,
2013-04-22 11:01:00,49.1,24.6,30.74,NE,41,4.8,12.7,38,0.00,CLR,,0.00,WeatherDisplay:10.37,2013-04-22 15:01:00,
2013-04-22 11:06:00,49.2,24.6,30.74,South,187,5.2,9.2,38,0.00,CLR,,0.00,WeatherDisplay:10.37,2013-04-22 15:06:00,
2013-04-22 11:11:00,49.1,24.6,30.74,East,88,7.5,10.4,38,0.00,CLR,,0.00,WeatherDisplay:10.37,2013-04-22 15:11:00,
2013-04-22 11:16:00,49.2,25.3,30.73,East,81,3.7,5.0,39,0.00,CLR,,0.00,WeatherDisplay:10.37,2013-04-22 15:16:00,
2013-04-22 11:21:00,49.3,24.7,30.73,East,96,6.6,11.5,38,0.00,CLR,,0.00,WeatherDisplay:10.37,2013-04-22 15:21:00,
2013-04-22 11:26:00,49.4,24.8,30.72,East,101,7.4,12.7,38,0.00,CLR,,0.00,WeatherDisplay:10.37,2013-04-22 15:26:00,
2013-04-22 11:31:00,49.4,24.8,30.72,SSW,192,3.2,8.1,38,0.00,CLR,,0.00,WeatherDisplay:10.37,2013-04-22 15:31:00,
2013-04-22 11:36:00,49.7,23.1,30.72,SE,126,7.9,11.5,35,0.00,CLR,,0.00,WeatherDisplay:10.37,2013-04-22 15:36:00,
2013-04-22 11:41:00,49.6,23.7,30.72,NNE,24,3.7,6.9,36,0.00,CLR,,0.00,WeatherDisplay:10.37,2013-04-22 15:41:00,
2013-04-22 11:46:00,50.1,24.2,30.72,ESE,103,4.9,10.4,36,0.00,CLR,,0.00,WeatherDisplay:10.37,2013-04-22 15:46:00,
2013-04-22 11:51:00,50.4,24.4,30.72,NNE,28,3.7,8.1,36,0.00,CLR,,0.00,WeatherDisplay:10.37,2013-04-22 15:51:00,
2013-04-22 11:56:00,50.3,25.0,30.72,East,90,3.8,15.0,37,0.00,CLR,,0.00,WeatherDisplay:10.37,2013-04-22 15:56:00,
2013-04-22 12:01:00,50.1,24.2,30.72,East,84,6.8,12.7,36,0.00,CLR,,0.00,WeatherDisplay:10.37,2013-04-22 16:01:00,
2013-04-22 12:06:00,50.2,24.2,30.72,ESE,102,7.2,17.3,36,0.00,CLR,,0.00,WeatherDisplay:10.37,2013-04-22 16:06:00,
2013-04-22 12:11:00,50.1,24.2,30.71,ENE,69,3.8,9.2,36,0.00,CLR,,0.00,WeatherDisplay:10.37,2013-04-22 16:11:00,
2013-04-22 12:16:00,50.3,23.0,30.71,SSW,213,9.3,16.1,34,0.00,CLR,,0.00,WeatherDisplay:10.37,2013-04-22 16:16:00,
2013-04-22 12:21:00,50.1,21.3,30.71,SSE,152,4.5,11.5,32,0.00,CLR,,0.00,WeatherDisplay:10.37,2013-04-22 16:21:00,
2013-04-22 12:26:00,49.6,22.3,30.71,SSE,158,7.3,11.5,34,0.00,CLR,,0.00,WeatherDisplay:10.37,2013-04-22 16:26:00,
2013-04-22 12:31:00,50.0,23.4,30.70,ESE,117,5.6,9.2,35,0.00,CLR,,0.00,WeatherDisplay:10.37,2013-04-22 16:31:00,
2013-04-22 12:36:00,49.8,21.8,30.70,South,169,7.4,12.7,33,0.00,CLR,,0.00,WeatherDisplay:10.37,2013-04-22 16:36:00,
2013-04-22 12:41:00,49.9,22.6,30.70,SSE,163,5.3,12.7,34,0.00,CLR,,0.00,WeatherDisplay:10.37,2013-04-22 16:41:00,
2013-04-22 12:46:00,49.7,23.8,30.71,ESE,113,3.2,6.9,36,0.00,CLR,,0.00,WeatherDisplay:10.37,2013-04-22 16:46:00,
2013-04-22 12:51:00,49.8,23.9,30.70,ESE,117,6.3,10.4,36,0.00,CLR,,0.00,WeatherDisplay:10.37,2013-04-22 16:51:00,
2013-04-22 12:56:00,49.6,23.7,30.71,South,178,3.5,8.1,36,0.00,CLR,,0.00,WeatherDisplay:10.37,2013-04-22 16:56:00,
2013-04-22 13:01:00,49.9,24.0,30.71,ENE,63,4.8,8.1,36,0.00,CLR,,0.00,WeatherDisplay:10.37,2013-04-22 17:01:00,
2013-04-22 13:06:00,49.8,24.5,30.71,East,86,2.9,6.9,37,0.00,CLR,,0.00,WeatherDisplay:10.37,2013-04-22 17:06:00,
2013-04-22 13:11:00,50.0,25.4,30.71,ESE,104,3.3,5.8,38,0.00,CLR,,0.00,WeatherDisplay:10.37,2013-04-22 17:11:00,
2013-04-22 13:16:00,50.5,25.2,30.71,East,101,2.9,8.1,37,0.00,CLR,,0.00,WeatherDisplay:10.37,2013-04-22 17:16:00,
2013-04-22 13:21:00,50.4,27.0,30.71,SSE,160,8.7,17.3,40,0.00,CLR,,0.00,WeatherDisplay:10.37,2013-04-22 17:21:00,
2013-04-22 13:26:00,50.1,26.1,30.71,East,98,5.0,11.5,39,0.00,CLR,,0.00,WeatherDisplay:10.37,2013-04-22 17:26:00,
2013-04-22 13:31:00,50.3,25.0,30.70,NE,43,8.0,11.5,37,0.00,CLR,,0.00,WeatherDisplay:10.37,2013-04-22 17:31:00,
2013-04-22 13:36:00,49.7,24.5,30.70,SSE,160,6.4,11.5,37,0.00,CLR,,0.00,WeatherDisplay:10.37,2013-04-22 17:36:00,
2013-04-22 13:41:00,49.7,23.8,30.70,SE,132,7.6,11.5,36,0.00,CLR,,0.00,WeatherDisplay:10.37,2013-04-22 17:41:00,
2013-04-22 13:46:00,49.5,24.9,30.70,East,86,4.7,12.7,38,0.00,CLR,,0.00,WeatherDisplay:10.37,2013-04-22 17:46:00,
2013-04-22 13:51:00,49.2,25.3,30.70,North,11,3.9,9.2,39,0.00,CLR,,0.00,WeatherDisplay:10.37,2013-04-22 17:51:00,
2013-04-22 13:56:00,49.4,23.5,30.70,East,86,5.3,10.4,36,0.00,CLR,,0.00,WeatherDisplay:10.37,2013-04-22 17:56:00,
2013-04-22 14:01:00,49.6,23.7,30.70,SE,135,3.8,5.8,36,0.00,CLR,,0.00,WeatherDisplay:10.37,2013-04-22 18:01:00,
2013-04-22 14:06:00,50.0,22.7,30.70,SSW,195,5.7,11.5,34,0.00,CLR,,0.00,WeatherDisplay:10.37,2013-04-22 18:06:00,
2013-04-22 14:11:00,49.9,22.6,30.69,SSE,150,4.5,10.4,34,0.00,CLR,,0.00,WeatherDisplay:10.37,2013-04-22 18:11:00,
2013-04-22 14:16:00,50.3,23.0,30.68,ENE,67,3.3,6.9,34,0.00,CLR,,0.00,WeatherDisplay:10.37,2013-04-22 18:16:00,
2013-04-22 14:21:00,50.3,20.8,30.68,ESE,119,3.2,5.8,31,0.00,CLR,,0.00,WeatherDisplay:10.37,2013-04-22 18:21:00,
2013-04-22 14:26:00,49.8,20.3,30.68,ENE,67,5.2,9.2,31,0.00,CLR,,0.00,WeatherDisplay:10.37,2013-04-22 18:26:00,
2013-04-22 14:31:00,49.8,20.3,30.67,ESE,109,8.1,12.7,31,0.00,CLR,,0.00,WeatherDisplay:10.37,2013-04-22 18:31:00,
2013-04-22 14:36:00,49.2,21.3,30.67,East,83,3.2,10.4,33,0.00,CLR,,0.00,WeatherDisplay:10.37,2013-04-22 18:36:00,
2013-04-22 14:41:00,49.4,20.7,30.67,East,98,6.6,11.5,32,0.00,CLR,,0.00,WeatherDisplay:10.37,2013-04-22 18:41:00,
2013-04-22 14:46:00,49.4,20.7,30.67,ESE,119,5.6,15.0,32,0.00,CLR,,0.00,WeatherDisplay:10.37,2013-04-22 18:46:00,
2013-04-22 14:51:00,49.8,21.1,30.67,ENE,70,3.6,8.1,32,0.00,CLR,,0.00,WeatherDisplay:10.37,2013-04-22 18:51:00,
2013-04-22 14:56:00,49.7,21.7,30.67,SE,136,6.8,15.0,33,0.00,CLR,,0.00,WeatherDisplay:10.37,2013-04-22 18:56:00,
2013-04-22 15:01:00,50.0,22.0,30.67,ESE,103,6.5,10.4,33,0.00,CLR,,0.00,WeatherDisplay:10.37,2013-04-22 19:01:00,
2013-04-22 15:06:00,50.2,21.4,30.66,East,98,5.5,11.5,32,0.00,CLR,,0.00,WeatherDisplay:10.37,2013-04-22 19:06:00,
2013-04-22 15:11:00,50.7,22.6,30.66,NE,50,2.6,3.5,33,0.00,CLR,,0.00,WeatherDisplay:10.37,2013-04-22 19:11:00,
2013-04-22 15:16:00,50.8,23.4,30.66,SSE,163,5.7,11.5,34,0.00,CLR,,0.00,WeatherDisplay:10.37,2013-04-22 19:16:00,
2013-04-22 15:21:00,50.6,23.9,30.66,ESE,107,6.9,11.5,35,0.00,CLR,,0.00,WeatherDisplay:10.37,2013-04-22 19:21:00,
2013-04-22 15:26:00,50.3,24.3,30.66,SSE,149,4.4,9.2,36,0.00,CLR,,0.00,WeatherDisplay:10.37,2013-04-22 19:26:00,
2013-04-22 15:31:00,50.1,24.8,30.66,ESE,111,4.1,6.9,37,0.00,CLR,,0.00,WeatherDisplay:10.37,2013-04-22 19:31:00,
2013-04-22 15:36:00,50.0,24.1,30.65,ESE,122,2.5,5.8,36,0.00,CLR,,0.00,WeatherDisplay:10.37,2013-04-22 19:36:00,
2013-04-22 15:41:00,50.4,27.0,30.65,ENE,65,2.6,5.8,40,0.00,CLR,,0.00,WeatherDisplay:10.37,2013-04-22 19:41:00,
2013-04-22 15:46:00,49.9,27.7,30.65,ENE,67,5.0,11.5,42,0.00,CLR,,0.00,WeatherDisplay:10.37,2013-04-22 19:46:00,
2013-04-22 15:51:00,49.4,28.4,30.66,South,185,9.4,16.1,44,0.00,CLR,,0.00,WeatherDisplay:10.37,2013-04-22 19:51:00,
2013-04-22 15:56:00,49.2,29.3,30.66,SSE,150,3.8,6.9,46,0.00,CLR,,0.00,WeatherDisplay:10.37,2013-04-22 19:56:00,
2013-04-22 16:01:00,49.2,29.3,30.66,SSE,166,6.7,11.5,46,0.00,BKN,,0.00,WeatherDisplay:10.37,2013-04-22 20:01:00,
2013-04-22 16:06:00,49.5,29.6,30.66,East,84,6.4,10.4,46,0.00,BKN,,0.00,WeatherDisplay:10.37,2013-04-22 20:06:00,
2013-04-22 16:11:00,49.3,30.9,30.66,ESE,105,5.5,8.1,49,0.00,BKN,,0.00,WeatherDisplay:10.37,2013-04-22 20:11:00,
2013-04-22 16:16:00,49.3,31.4,30.66,South,180,5.6,13.8,50,0.00,BKN,,0.00,WeatherDisplay:10.37,2013-04-22 20:16:00,
2013-04-22 16:21:00,48.8,31.9,30.66,South,178,6.3,12.7,52,0.00,BKN,,0.00,WeatherDisplay:10.37,2013-04-22 20:21:00,
2013-04-22 16:26:00,48.5,31.2,30.66,SE,146,5.3,11.5,51,0.00,BKN,,0.00,WeatherDisplay:10.37,2013-04-22 20:26:00,
2013-04-22 16:31:00,48.4,31.1,30.66,ESE,106,5.4,8.1,51,0.00,BKN,,0.00,WeatherDisplay:10.37,2013-04-22 20:31:00,
2013-04-22 16:36:00,48.4,30.6,30.66,ENE,74,4.6,9.2,50,0.00,BKN,,0.00,WeatherDisplay:10.37,2013-04-22 20:36:00,
2013-04-22 16:41:00,48.2,30.4,30.65,East,94,7.8,12.7,50,0.00,BKN,,0.00,WeatherDisplay:10.37,2013-04-22 20:41:00,
2013-04-22 16:46:00,47.6,29.4,30.65,ENE,57,5.2,11.5,49,0.00,BKN,,0.00,WeatherDisplay:10.37,2013-04-22 20:46:00,
2013-04-22 16:51:00,47.9,30.1,30.65,South,184,3.9,8.1,50,0.00,BKN,,0.00,WeatherDisplay:10.37,2013-04-22 20:51:00,
2013-04-22 16:56:00,47.8,30.0,30.65,SSE,149,2.7,11.5,50,0.00,BKN,,0.00,WeatherDisplay:10.37,2013-04-22 20:56:00,
2013-04-22 17:01:00,47.9,30.6,30.65,SSE,150,5.9,9.2,51,0.00,BKN,,0.00,WeatherDisplay:10.37,2013-04-22 21:01:00,
2013-04-22 17:06:00,47.9,31.6,30.65,SSW,194,8.9,12.7,53,0.00,BKN,,0.00,WeatherDisplay:10.37,2013-04-22 21:06:00,
2013-04-22 17:11:00,47.7,31.4,30.65,South,173,7.9,12.7,53,0.00,BKN,,0.00,WeatherDisplay:10.37,2013-04-22 21:11:00,
2013-04-22 17:16:00,47.6,32.2,30.65,South,170,5.8,9.2,55,0.00,BKN,,0.00,WeatherDisplay:10.37,2013-04-22 21:16:00,
2013-04-22 17:21:00,46.9,31.6,30.65,ENE,69,3.6,6.9,55,0.00,BKN,,0.00,WeatherDisplay:10.37,2013-04-22 21:21:00,
2013-04-22 17:26:00,46.5,32.1,30.66,SE,146,3.5,8.1,57,0.00,BKN,,0.00,WeatherDisplay:10.37,2013-04-22 21:26:00,
2013-04-22 17:31:00,46.4,32.0,30.66,SSE,155,6.4,11.5,57,0.00,BKN,,0.00,WeatherDisplay:10.37,2013-04-22 21:31:00,
2013-04-22 17:36:00,46.0,31.2,30.65,ESE,113,4.9,10.4,56,0.00,BKN,,0.00,WeatherDisplay:10.37,2013-04-22 21:36:00,
2013-04-22 17:41:00,45.8,32.3,30.65,SSE,162,5.5,10.4,59,0.00,BKN,,0.00,WeatherDisplay:10.37,2013-04-22 21:41:00,
2013-04-22 17:46:00,45.6,31.2,30.65,SSE,148,6.3,11.5,57,0.00,BKN,,0.00,WeatherDisplay:10.37,2013-04-22 21:46:00,
2013-04-22 17:51:00,45.5,31.6,30.65,ESE,111,5.5,9.2,58,0.00,BKN,,0.00,WeatherDisplay:10.37,2013-04-22 21:51:00,
2013-04-22 17:56:00,45.7,32.6,30.64,NNE,22,4.6,10.4,60,0.00,BKN,,0.00,WeatherDisplay:10.37,2013-04-22 21:56:00,
2013-04-22 18:01:00,45.9,33.2,30.64,East,88,2.8,9.2,61,0.00,SCT,,0.00,WeatherDisplay:10.37,2013-04-22 22:01:00,
2013-04-22 18:06:00,45.6,32.9,30.65,ENE,63,2.4,4.6,61,0.00,SCT,,0.00,WeatherDisplay:10.37,2013-04-22 22:06:00,
2013-04-22 18:11:00,45.1,32.4,30.65,South,181,4.2,7.0,61,0.00,SCT,,0.00,WeatherDisplay:10.37,2013-04-22 22:11:00,
2013-04-22 18:16:00,44.8,33.0,30.65,SE,137,4.3,11.5,63,0.00,SCT,,0.00,WeatherDisplay:10.37,2013-04-22 22:16:00,
2013-04-22 18:21:00,44.7,33.3,30.65,SSE,159,1.8,3.5,64,0.00,SCT,,0.00,WeatherDisplay:10.37,2013-04-22 22:21:00,
2013-04-22 18:26:00,44.5,32.3,30.65,ESE,113,2.7,4.6,62,0.00,SCT,,0.00,WeatherDisplay:10.37,2013-04-22 22:26:00,
2013-04-22 18:31:00,44.4,32.2,30.65,SSE,159,2.9,7.0,62,0.00,SCT,,0.00,WeatherDisplay:10.37,2013-04-22 22:31:00,
2013-04-22 18:36:00,44.2,32.4,30.65,SSE,154,4.1,6.9,63,0.00,SCT,,0.00,WeatherDisplay:10.37,2013-04-22 22:36:00,
2013-04-22 18:41:00,44.1,32.3,30.65,SSE,151,1.0,2.3,63,0.00,SCT,,0.00,WeatherDisplay:10.37,2013-04-22 22:41:00,
2013-04-22 18:46:00,44.1,32.3,30.65,SE,130,3.2,8.1,63,0.00,SCT,,0.00,WeatherDisplay:10.37,2013-04-22 22:46:00,
2013-04-22 18:51:00,44.1,32.7,30.65,SE,131,3.1,4.6,64,0.00,SCT,,0.00,WeatherDisplay:10.37,2013-04-22 22:51:00,
2013-04-22 18:56:00,44.1,32.7,30.65,ESE,117,3.6,6.9,64,0.00,SCT,,0.00,WeatherDisplay:10.37,2013-04-22 22:56:00,
2013-04-22 19:01:00,44.0,33.4,30.64,East,85,2.5,3.5,66,0.00,BKN,,0.00,WeatherDisplay:10.37,2013-04-22 23:01:00,
2013-04-22 19:06:00,43.8,33.2,30.64,East,101,2.3,5.8,66,0.00,BKN,,0.00,WeatherDisplay:10.37,2013-04-22 23:06:00,
2013-04-22 19:11:00,43.6,33.0,30.64,ESE,106,3.4,5.8,66,0.00,BKN,,0.00,WeatherDisplay:10.37,2013-04-22 23:11:00,
2013-04-22 19:16:00,43.5,33.3,30.65,ESE,119,4.7,8.1,67,0.00,BKN,,0.00,WeatherDisplay:10.37,2013-04-22 23:16:00,
2013-04-22 19:21:00,43.3,33.1,30.64,SSE,153,2.5,3.5,67,0.00,BKN,,0.00,WeatherDisplay:10.37,2013-04-22 23:21:00,
2013-04-22 19:26:00,43.2,33.0,30.64,SE,136,4.2,10.0,67,0.00,BKN,,0.00,WeatherDisplay:10.37,2013-04-22 23:26:00,
2013-04-22 19:31:00,43.0,32.8,30.64,South,170,1.8,6.9,67,0.00,BKN,,0.00,WeatherDisplay:10.37,2013-04-22 23:31:00,
2013-04-22 19:36:00,42.9,32.7,30.64,NE,53,1.6,4.6,67,0.00,BKN,,0.00,WeatherDisplay:10.37,2013-04-22 23:36:00,
2013-04-22 19:41:00,42.8,32.6,30.64,SE,125,2.3,3.5,67,0.00,BKN,,0.00,WeatherDisplay:10.37,2013-04-22 23:41:00,
2013-04-22 19:46:00,42.7,32.9,30.64,ENE,58,2.3,3.5,68,0.00,BKN,,0.00,WeatherDisplay:10.37,2013-04-22 23:46:00,
2013-04-22 19:51:00,42.5,33.0,30.65,SE,138,1.8,6.9,69,0.00,BKN,,0.00,WeatherDisplay:10.37,2013-04-22 23:51:00,
2013-04-22 19:56:00,42.3,32.8,30.65,SSE,148,4.3,8.1,69,0.00,BKN,,0.00,WeatherDisplay:10.37,2013-04-22 23:56:00,
2013-04-22 20:01:00,42.3,32.8,30.65,ENE,66,1.1,3.5,69,0.00,BKN,,0.00,WeatherDisplay:10.37,2013-04-23 00:01:00,
2013-04-22 20:06:00,42.2,33.1,30.65,ESE,112,0.7,3.5,70,0.00,BKN,,0.00,WeatherDisplay:10.37,2013-04-23 00:06:00,
2013-04-22 20:11:00,42.0,32.9,30.65,East,91,2.7,5.0,70,0.00,BKN,,0.00,WeatherDisplay:10.37,2013-04-23 00:11:00,
2013-04-22 20:16:00,41.9,32.5,30.65,SE,130,0.1,1.2,69,0.00,FEW,,0.00,WeatherDisplay:10.37,2013-04-23 00:16:00,
2013-04-22 20:21:00,41.8,32.4,30.64,ESE,119,0.9,2.3,69,0.00,FEW,,0.00,WeatherDisplay:10.37,2013-04-23 00:21:00,
2013-04-22 20:26:00,41.6,32.5,30.65,East,81,0.4,4.6,70,0.00,FEW,,0.00,WeatherDisplay:10.37,2013-04-23 00:26:00,
2013-04-22 20:31:00,41.4,32.3,30.65,ESE,103,1.0,3.5,70,0.00,FEW,,0.00,WeatherDisplay:10.37,2013-04-23 00:31:00,
2013-04-22 20:36:00,41.3,32.2,30.64,ESE,116,1.0,2.3,70,0.00,FEW,,0.00,WeatherDisplay:10.37,2013-04-23 00:36:00,
2013-04-22 20:41:00,41.2,32.2,30.64,ESE,116,1.3,5.0,70,0.00,FEW,,0.00,WeatherDisplay:10.37,2013-04-23 00:41:00,
2013-04-22 20:46:00,41.0,32.0,30.64,ESE,108,2.8,5.8,70,0.00,FEW,,0.00,WeatherDisplay:10.37,2013-04-23 00:46:00,
2013-04-22 20:51:00,40.9,32.2,30.64,SE,140,0.5,1.2,71,0.00,FEW,,0.00,WeatherDisplay:10.37,2013-04-23 00:51:00,
2013-04-22 20:56:00,40.8,32.5,30.64,SE,142,0.5,1.2,72,0.00,FEW,,0.00,WeatherDisplay:10.37,2013-04-23 00:56:00,
2013-04-22 21:01:00,40.7,32.4,30.64,ENE,69,0.1,2.3,72,0.00,FEW,,0.00,WeatherDisplay:10.37,2013-04-23 01:01:00,
2013-04-22 21:06:00,40.6,32.6,30.64,SSE,164,0.6,2.3,73,0.00,FEW,,0.00,WeatherDisplay:10.37,2013-04-23 01:06:00,
2013-04-22 21:11:00,40.5,32.5,30.64,SSE,163,0.0,0.0,73,0.00,FEW,,0.00,WeatherDisplay:10.37,2013-04-23 01:11:00,
2013-04-22 21:16:00,40.4,32.8,30.64,SE,135,0.6,2.3,74,0.00,FEW,,0.00,WeatherDisplay:10.37,2013-04-23 01:16:00,
2013-04-22 21:21:00,40.3,32.7,30.64,ENE,76,1.6,2.3,74,0.00,FEW,,0.00,WeatherDisplay:10.37,2013-04-23 01:21:00,
2013-04-22 21:26:00,40.3,32.7,30.64,East,95,0.6,2.3,74,0.00,FEW,,0.00,WeatherDisplay:10.37,2013-04-23 01:26:00,
2013-04-22 21:31:00,40.2,32.6,30.64,SE,146,0.7,3.5,74,0.00,FEW,,0.00,WeatherDisplay:10.37,2013-04-23 01:31:00,
2013-04-22 21:36:00,40.1,32.5,30.64,ENE,78,1.3,2.3,74,0.00,FEW,,0.00,WeatherDisplay:10.37,2013-04-23 01:36:00,
2013-04-22 21:41:00,40.0,32.4,30.64,South,178,0.9,2.3,74,0.00,FEW,,0.00,WeatherDisplay:10.37,2013-04-23 01:41:00,
2013-04-22 21:46:00,40.0,32.4,30.64,ESE,117,1.3,2.3,74,0.00,FEW,,0.00,WeatherDisplay:10.37,2013-04-23 01:46:00,
2013-04-22 21:51:00,40.0,32.4,30.64,ESE,107,0.0,1.2,74,0.00,FEW,,0.00,WeatherDisplay:10.37,2013-04-23 01:51:00,
2013-04-22 21:56:00,40.0,32.4,30.64,East,101,0.4,2.3,74,0.00,FEW,,0.00,WeatherDisplay:10.37,2013-04-23 01:56:00,
2013-04-22 22:01:00,39.9,31.9,30.63,SE,134,0.7,1.2,73,0.00,FEW,,0.00,WeatherDisplay:10.37,2013-04-23 02:01:00,
2013-04-22 22:06:00,39.8,31.8,30.63,SE,142,1.4,4.6,73,0.00,FEW,,0.00,WeatherDisplay:10.37,2013-04-23 02:06:00,
2013-04-22 22:11:00,39.8,31.8,30.63,ENE,58,0.2,1.2,73,0.00,FEW,,0.00,WeatherDisplay:10.37,2013-04-23 02:11:00,
2013-04-22 22:16:00,39.8,32.2,30.63,ENE,58,0.1,1.2,74,0.00,BKN,,0.00,WeatherDisplay:10.37,2013-04-23 02:16:00,
2013-04-22 22:21:00,39.7,32.1,30.63,ENE,58,0.1,1.2,74,0.00,BKN,,0.00,WeatherDisplay:10.37,2013-04-23 02:21:00,
2013-04-22 22:26:00,39.5,31.9,30.62,SE,133,0.9,2.3,74,0.00,BKN,,0.00,WeatherDisplay:10.37,2013-04-23 02:26:00,
2013-04-22 22:31:00,39.4,31.8,30.62,ENE,69,0.9,2.3,74,0.00,BKN,,0.00,WeatherDisplay:10.37,2013-04-23 02:31:00,
2013-04-22 22:36:00,39.3,32.0,30.62,ENE,69,0.5,1.2,75,0.00,BKN,,0.00,WeatherDisplay:10.37,2013-04-23 02:36:00,
2013-04-22 22:41:00,39.2,31.9,30.62,ENE,69,0.0,1.2,75,0.00,BKN,,0.00,WeatherDisplay:10.37,2013-04-23 02:41:00,
2013-04-22 22:46:00,39.1,31.8,30.61,ENE,69,1.1,2.3,75,0.00,BKN,,0.00,WeatherDisplay:10.37,2013-04-23 02:46:00,
2013-04-22 22:51:00,38.9,31.3,30.61,WSW,246,0.3,1.2,74,0.00,BKN,,0.00,WeatherDisplay:10.37,2013-04-23 02:51:00,
2013-04-22 22:56:00,38.9,31.3,30.61,WSW,246,0.0,0.0,74,0.00,BKN,,0.00,WeatherDisplay:10.37,2013-04-23 02:56:00,
2013-04-22 23:01:00,38.8,31.2,30.61,East,93,1.2,2.3,74,0.00,FEW,,0.00,WeatherDisplay:10.37,2013-04-23 03:01:00,
2013-04-22 23:06:00,38.7,31.1,30.61,ESE,118,1.2,3.5,74,0.00,FEW,,0.00,WeatherDisplay:10.37,2013-04-23 03:06:00,
2013-04-22 23:11:00,38.7,30.8,30.61,SE,140,1.1,3.5,73,0.00,FEW,,0.00,WeatherDisplay:10.37,2013-04-23 03:11:00,
2013-04-22 23:16:00,38.6,30.7,30.61,NE,55,0.5,1.2,73,0.00,FEW,,0.00,WeatherDisplay:10.37,2013-04-23 03:16:00,
2013-04-22 23:21:00,38.6,30.7,30.61,ENE,57,0.1,1.2,73,0.00,FEW,,0.00,WeatherDisplay:10.37,2013-04-23 03:21:00,
2013-04-22 23:26:00,38.5,30.6,30.61,ESE,105,0.3,1.2,73,0.00,FEW,,0.00,WeatherDisplay:10.37,2013-04-23 03:26:00,
2013-04-22 23:31:00,38.4,30.8,30.61,ESE,105,0.0,0.0,74,0.00,FEW,,0.00,WeatherDisplay:10.37,2013-04-23 03:31:00,
2013-04-22 23:36:00,38.4,30.8,30.60,ESE,105,0.0,0.0,74,0.00,FEW,,0.00,WeatherDisplay:10.37,2013-04-23 03:36:00,
2013-04-22 23:41:00,38.3,30.7,30.60,ESE,105,0.0,0.0,74,0.00,FEW,,0.00,WeatherDisplay:10.37,2013-04-23 03:41:00,
2013-04-22 23:46:00,38.2,30.6,30.60,East,80,0.3,3.0,74,0.00,FEW,,0.00,WeatherDisplay:10.37,2013-04-23 03:46:00,
2013-04-22 23:51:00,38.1,30.5,30.60,ENE,75,0.0,0.0,74,0.00,FEW,,0.00,WeatherDisplay:10.37,2013-04-23 03:51:00,
2013-04-22 23:56:00,37.9,30.4,30.60,NE,55,0.7,3.5,74,0.00,FEW,,0.00,WeatherDisplay:10.37,2013-04-23 03:56:00,